| time (UTC) | temp C | wind direction | speed KPH | gust KPH | rain 1hr cm | rain 24hr cm | rain mn cm | humidity % | barometer mb |
| 20260505234212 | 17 | 270 | 3.2 | 4.8 | 0.00 | 0.00 | 0.00 | 70 | 1010.8 |
| 20260505233711 | 17 | 113 | 3.2 | 4.8 | 0.00 | 0.00 | 0.00 | 69 | 1010.8 |
| 20260505233208 | 18 | 270 | 1.6 | 3.2 | 0.00 | 0.00 | 0.00 | 68 | 1010.5 |
| 20260505232708 | 18 | 225 | 1.6 | 3.2 | 0.00 | 0.00 | 0.00 | 66 | 1010.8 |
| 20260505232209 | 18 | 270 | 0.0 | 3.2 | 0.00 | 0.00 | 0.00 | 65 | 1010.8 |
| 20260505231201 | 18 | 203 | 1.6 | 4.8 | 0.00 | 0.00 | 0.00 | 65 | 1010.8 |
| 20260505230658 | 18 | 0 | 1.6 | 4.8 | 0.00 | 0.00 | 0.00 | 63 | 1010.8 |
| 20260505230156 | 19 | 248 | 0.0 | 3.2 | 0.00 | 0.00 | 0.00 | 65 | 1010.8 |
| 20260505225653 | 18 | 293 | 0.0 | 3.2 | 0.00 | 0.00 | 0.00 | 65 | 1010.8 |
| 20260505225153 | 19 | 270 | 0.0 | 3.2 | 0.00 | 0.00 | 0.00 | 65 | 1010.8 |
| 20260505224654 | 19 | 315 | 1.6 | 3.2 | 0.00 | 0.00 | 0.00 | 65 | 1010.8 |
| 20260505223653 | 19 | 315 | 1.6 | 4.8 | 0.00 | 0.00 | 0.00 | 65 | 1010.8 |
| 20260505223152 | 18 | 270 | 0.0 | 4.8 | 0.00 | 0.00 | 0.00 | 65 | 1010.8 |
| 20260505222651 | 18 | 248 | 1.6 | 6.4 | 0.00 | 0.00 | 0.00 | 65 | 1011.2 |
| 20260505221646 | 19 | 270 | 0.0 | 1.6 | 0.00 | 0.00 | 0.00 | 63 | 1011.2 |
| 20260505221142 | 19 | 270 | 0.0 | 3.2 | 0.00 | 0.00 | 0.00 | 65 | 1011.2 |
| 20260505220639 | 18 | 68 | 0.0 | 3.2 | 0.00 | 0.00 | 0.00 | 65 | 1011.2 |
| 20260505215634 | 18 | 270 | 1.6 | 4.8 | 0.00 | 0.00 | 0.00 | 65 | 1011.2 |
| 20260505215134 | 18 | 293 | 0.0 | 0.0 | 0.00 | 0.00 | 0.00 | 66 | 1011.2 |
| 20260505214634 | 18 | 293 | 0.0 | 3.2 | 0.00 | 0.00 | 0.00 | 66 | 1011.2 |
| 20260505213633 | 18 | 293 | 1.6 | 3.2 | 0.00 | 0.00 | 0.00 | 66 | 1011.2 |
| 20260505213135 | 18 | 158 | 1.6 | 3.2 | 0.00 | 0.00 | 0.00 | 66 | 1011.5 |
| 20260505212634 | 17 | 45 | 1.6 | 4.8 | 0.00 | 0.00 | 0.00 | 68 | 1011.5 |
| 20260505212137 | 17 | 23 | 3.2 | 4.8 | 0.00 | 0.00 | 0.00 | 69 | 1011.5 |
| 20260505211635 | 17 | 270 | 1.6 | 4.8 | 0.00 | 0.00 | 0.00 | 69 | 1011.5 |
| 20260505210136 | 17 | 270 | 1.6 | 6.4 | 0.00 | 0.00 | 0.00 | 66 | 1011.2 |
| 20260505205134 | 17 | 0 | 0.0 | 3.2 | 0.00 | 0.00 | 0.00 | 66 | 1011.2 |
| 20260505204634 | 17 | 270 | 1.6 | 3.2 | 0.00 | 0.00 | 0.00 | 65 | 1011.5 |
| 20260505204133 | 18 | 293 | 1.6 | 3.2 | 0.00 | 0.00 | 0.00 | 65 | 1011.5 |
| 20260505203632 | 18 | 68 | 1.6 | 3.2 | 0.00 | 0.00 | 0.00 | 63 | 1011.5 |
| 20260505202636 | 18 | 315 | 1.6 | 3.2 | 0.00 | 0.00 | 0.00 | 63 | 1011.2 |
| 20260505202133 | 18 | 315 | 0.0 | 3.2 | 0.00 | 0.00 | 0.00 | 65 | 1011.5 |
| 20260505201636 | 18 | 23 | 0.0 | 3.2 | 0.00 | 0.00 | 0.00 | 65 | 1011.5 |
| 20260505201134 | 18 | 293 | 0.0 | 3.2 | 0.00 | 0.00 | 0.00 | 65 | 1011.5 |
| 20260505200633 | 18 | 270 | 0.0 | 3.2 | 0.00 | 0.00 | 0.00 | 63 | 1011.5 |
| 20260505200135 | 18 | 270 | 1.6 | 4.8 | 0.00 | 0.00 | 0.00 | 63 | 1011.5 |
| 20260505195634 | 18 | 293 | 3.2 | 4.8 | 0.00 | 0.00 | 0.00 | 63 | 1011.8 |
| 20260505195135 | 18 | 90 | 0.0 | 1.6 | 0.00 | 0.00 | 0.00 | 65 | 1011.5 |
| 20260505194634 | 18 | 180 | 0.0 | 3.2 | 0.00 | 0.00 | 0.00 | 65 | 1011.5 |
| 20260505194133 | 17 | 293 | 1.6 | 3.2 | 0.00 | 0.00 | 0.00 | 65 | 1011.8 |
| 20260505193633 | 17 | 293 | 1.6 | 4.8 | 0.00 | 0.00 | 0.00 | 63 | 1011.8 |
| 20260505193133 | 17 | 270 | 3.2 | 4.8 | 0.00 | 0.00 | 0.00 | 65 | 1011.8 |
| 20260505192633 | 18 | 338 | 3.2 | 4.8 | 0.00 | 0.00 | 0.00 | 63 | 1011.8 |
| 20260505192133 | 18 | 293 | 3.2 | 4.8 | 0.00 | 0.00 | 0.00 | 63 | 1011.8 |
| 20260505191631 | 18 | 225 | 1.6 | 4.8 | 0.00 | 0.00 | 0.00 | 63 | 1011.5 |
| 20260505191131 | 18 | 270 | 1.6 | 4.8 | 0.00 | 0.00 | 0.00 | 63 | 1011.5 |
| 20260505190627 | 17 | 158 | 3.2 | 4.8 | 0.00 | 0.00 | 0.00 | 65 | 1011.5 |
| 20260505190126 | 18 | 293 | 1.6 | 4.8 | 0.00 | 0.00 | 0.00 | 63 | 1011.5 |
| 20260505185625 | 17 | 293 | 1.6 | 4.8 | 0.00 | 0.00 | 0.00 | 65 | 1011.5 |
| 20260505185127 | 17 | 270 | 1.6 | 4.8 | 0.00 | 0.00 | 0.00 | 65 | 1011.5 |
| 20260505184628 | 16 | 315 | 1.6 | 3.2 | 0.00 | 0.00 | 0.00 | 66 | 1011.5 |
| 20260505184123 | 16 | 293 | 1.6 | 4.8 | 0.00 | 0.00 | 0.00 | 68 | 1011.8 |
| 20260505183624 | 16 | 270 | 3.2 | 4.8 | 0.00 | 0.00 | 0.00 | 68 | 1011.5 |
| 20260505183121 | 16 | 293 | 3.2 | 4.8 | 0.00 | 0.00 | 0.00 | 68 | 1011.5 |
| 20260505182620 | 16 | 248 | 3.2 | 6.4 | 0.00 | 0.00 | 0.00 | 69 | 1011.5 |
| 20260505182115 | 16 | 293 | 4.8 | 6.4 | 0.00 | 0.00 | 0.00 | 68 | 1011.5 |
| 20260505180112 | 16 | 293 | 1.6 | 4.8 | 0.00 | 0.00 | 0.00 | 69 | 1011.5 |
| 20260505175605 | 16 | 315 | 3.2 | 4.8 | 0.00 | 0.00 | 0.00 | 68 | 1011.2 |
| 20260505175102 | 15 | 270 | 1.6 | 3.2 | 0.00 | 0.00 | 0.00 | 68 | 1011.2 |
| 20260505174604 | 16 | 293 | 1.6 | 3.2 | 0.00 | 0.00 | 0.00 | 68 | 1011.2 |
| 20260505174059 | 16 | 68 | 0.0 | 3.2 | 0.00 | 0.00 | 0.00 | 69 | 1011.2 |
| 20260505173600 | 16 | 293 | 1.6 | 3.2 | 0.00 | 0.00 | 0.00 | 69 | 1011.2 |
| 20260505172057 | 15 | 338 | 1.6 | 4.8 | 0.00 | 0.00 | 0.00 | 68 | 1011.2 |
| 20260505171557 | 16 | 270 | 1.6 | 3.2 | 0.00 | 0.00 | 0.00 | 68 | 1011.2 |
| 20260505171057 | 16 | 293 | 1.6 | 3.2 | 0.00 | 0.00 | 0.00 | 68 | 1011.2 |
| 20260505170555 | 16 | 90 | 1.6 | 3.2 | 0.00 | 0.00 | 0.00 | 66 | 1010.8 |
| 20260505170055 | 16 | 315 | 1.6 | 3.2 | 0.00 | 0.00 | 0.00 | 68 | 1011.2 |
| 20260505165555 | 16 | 270 | 0.0 | 3.2 | 0.00 | 0.00 | 0.00 | 68 | 1010.8 |
| 20260505164556 | 15 | 270 | 0.0 | 4.8 | 0.00 | 0.00 | 0.00 | 69 | 1010.8 |
| 20260505164052 | 15 | 45 | 1.6 | 4.8 | 0.00 | 0.00 | 0.00 | 69 | 1010.8 |
| 20260505163553 | 15 | 270 | 1.6 | 3.2 | 0.00 | 0.00 | 0.00 | 69 | 1010.8 |
| 20260505163046 | 15 | 315 | 0.0 | 3.2 | 0.00 | 0.00 | 0.00 | 69 | 1010.8 |
| 20260505162550 | 15 | 293 | 1.6 | 3.2 | 0.00 | 0.00 | 0.00 | 70 | 1010.8 |
| 20260505162043 | 15 | 293 | 0.0 | 3.2 | 0.00 | 0.00 | 0.00 | 70 | 1011.2 |
| 20260505161543 | 15 | 293 | 0.0 | 3.2 | 0.00 | 0.00 | 0.00 | 70 | 1010.8 |
| 20260505161048 | 15 | 0 | 1.6 | 1.6 | 0.00 | 0.00 | 0.00 | 71 | 1010.8 |
| 20260505160540 | 14 | 293 | 0.0 | 1.6 | 0.00 | 0.00 | 0.00 | 73 | 1010.8 |
| 20260505153036 | 13 | 45 | 1.6 | 3.2 | 0.00 | 0.00 | 0.00 | 75 | 1010.8 |
| 20260505151536 | 13 | 113 | 0.0 | 1.6 | 0.00 | 0.00 | 0.00 | 78 | 1010.5 |
| 20260505150534 | 12 | 90 | 0.0 | 1.6 | 0.00 | 0.00 | 0.00 | 79 | 1010.5 |
| 20260505140520 | 11 | 315 | 0.0 | 0.0 | 0.00 | 0.00 | 0.00 | 83 | 1010.1 |
| 20260505124443 | 11 | 270 | 0.0 | 0.0 | 0.00 | 0.00 | 0.00 | 81 | 1010.1 |
| 20260505123941 | 11 | 293 | 0.0 | 0.0 | 0.00 | 0.00 | 0.00 | 83 | 1010.1 |
| 20260505123441 | 11 | 338 | 0.0 | 0.0 | 0.00 | 0.00 | 0.00 | 81 | 1009.8 |
| 20260505122941 | 11 | 270 | 0.0 | 0.0 | 0.00 | 0.00 | 0.00 | 81 | 1010.1 |
| 20260505122441 | 11 | 270 | 0.0 | 0.0 | 0.00 | 0.00 | 0.00 | 83 | 1009.8 |
| 20260505121942 | 11 | 270 | 0.0 | 0.0 | 0.00 | 0.00 | 0.00 | 83 | 1010.1 |
| 20260505120940 | 11 | 270 | 0.0 | 0.0 | 0.00 | 0.00 | 0.00 | 81 | 1010.1 |
| 20260505120441 | 11 | 68 | 0.0 | 1.6 | 0.00 | 0.00 | 0.00 | 81 | 1010.1 |
| 20260505115940 | 11 | 270 | 0.0 | 1.6 | 0.00 | 0.00 | 0.00 | 81 | 1010.1 |
| 20260505115441 | 11 | 270 | 0.0 | 1.6 | 0.00 | 0.00 | 0.00 | 81 | 1010.1 |
| 20260505114440 | 11 | 270 | 0.0 | 3.2 | 0.00 | 0.00 | 0.00 | 81 | 1010.1 |
| 20260505113941 | 11 | 270 | 1.6 | 4.8 | 0.00 | 0.00 | 0.00 | 81 | 1010.1 |
| 20260505113440 | 11 | 270 | 3.2 | 4.8 | 0.00 | 0.00 | 0.00 | 81 | 1010.1 |
| 20260505112941 | 11 | 270 | 0.0 | 3.2 | 0.00 | 0.00 | 0.00 | 81 | 1010.1 |
| 20260505112443 | 11 | 270 | 0.0 | 0.0 | 0.00 | 0.00 | 0.00 | 81 | 1010.1 |
| 20260505111941 | 11 | 270 | 0.0 | 3.2 | 0.00 | 0.00 | 0.00 | 81 | 1009.8 |
| 20260505110939 | 11 | 270 | 1.6 | 3.2 | 0.00 | 0.00 | 0.00 | 81 | 1010.1 |
| 20260505101934 | 11 | 270 | 0.0 | 0.0 | 0.00 | 0.00 | 0.00 | 81 | 1009.8 |
| 20260505101435 | 11 | 270 | 0.0 | 0.0 | 0.00 | 0.00 | 0.00 | 81 | 1010.1 |
| 20260505100932 | 11 | 270 | 0.0 | 0.0 | 0.00 | 0.00 | 0.00 | 80 | 1010.1 |
| 20260505100430 | 11 | 270 | 0.0 | 0.0 | 0.00 | 0.00 | 0.00 | 80 | 1010.1 |
| 20260505095924 | 11 | 270 | 0.0 | 0.0 | 0.00 | 0.00 | 0.00 | 80 | 1010.1 |
| 20260505095424 | 11 | 293 | 0.0 | 0.0 | 0.00 | 0.00 | 0.00 | 80 | 1010.1 |
| 20260505094922 | 11 | 270 | 0.0 | 0.0 | 0.00 | 0.00 | 0.00 | 80 | 1010.1 |
| 20260505094423 | 11 | 270 | 0.0 | 0.0 | 0.00 | 0.00 | 0.00 | 80 | 1010.1 |
| 20260505093923 | 11 | 270 | 0.0 | 0.0 | 0.00 | 0.00 | 0.00 | 79 | 1010.1 |
| 20260505093421 | 12 | 293 | 0.0 | 0.0 | 0.00 | 0.00 | 0.00 | 78 | 1010.1 |
| 20260505092921 | 12 | 270 | 0.0 | 0.0 | 0.00 | 0.00 | 0.00 | 76 | 1010.1 |
| 20260505092420 | 12 | 270 | 0.0 | 3.2 | 0.00 | 0.00 | 0.00 | 76 | 1010.1 |
| 20260505091921 | 12 | 270 | 0.0 | 3.2 | 0.00 | 0.00 | 0.00 | 75 | 1010.1 |
| 20260505091421 | 12 | 270 | 0.0 | 1.6 | 0.00 | 0.00 | 0.00 | 75 | 1010.1 |
| 20260505090920 | 12 | 270 | 0.0 | 1.6 | 0.00 | 0.00 | 0.00 | 75 | 1010.5 |
| 20260505090423 | 12 | 203 | 0.0 | 3.2 | 0.00 | 0.00 | 0.00 | 76 | 1010.1 |
| 20260505085922 | 12 | 270 | 0.0 | 3.2 | 0.00 | 0.00 | 0.00 | 76 | 1010.5 |
| 20260505084922 | 12 | 293 | 0.0 | 1.6 | 0.00 | 0.00 | 0.00 | 78 | 1010.1 |
| 20260505084422 | 12 | 248 | 0.0 | 1.6 | 0.00 | 0.00 | 0.00 | 78 | 1010.1 |
| 20260505083921 | 12 | 270 | 0.0 | 1.6 | 0.00 | 0.00 | 0.00 | 78 | 1010.5 |
| 20260505083421 | 12 | 293 | 0.0 | 1.6 | 0.00 | 0.00 | 0.00 | 79 | 1010.5 |
| 20260505082921 | 12 | 293 | 0.0 | 1.6 | 0.00 | 0.00 | 0.00 | 79 | 1010.5 |
| 20260505082421 | 12 | 315 | 0.0 | 1.6 | 0.00 | 0.00 | 0.00 | 80 | 1010.5 |
| 20260505081922 | 12 | 270 | 0.0 | 1.6 | 0.00 | 0.00 | 0.00 | 80 | 1010.5 |
| 20260505081422 | 12 | 270 | 0.0 | 1.6 | 0.00 | 0.00 | 0.00 | 80 | 1010.5 |
| 20260505080921 | 12 | 270 | 0.0 | 0.0 | 0.00 | 0.00 | 0.00 | 81 | 1010.8 |
| 20260505075922 | 12 | 270 | 1.6 | 3.2 | 0.00 | 0.00 | 0.00 | 81 | 1010.8 |
| 20260505075417 | 12 | 270 | 0.0 | 1.6 | 0.00 | 0.00 | 0.00 | 83 | 1010.8 |
| 20260505074915 | 12 | 270 | 0.0 | 1.6 | 0.00 | 0.00 | 0.00 | 83 | 1010.5 |
| 20260505074415 | 12 | 270 | 0.0 | 3.2 | 0.00 | 0.00 | 0.00 | 85 | 1010.8 |
| 20260505073913 | 12 | 270 | 0.0 | 3.2 | 0.00 | 0.00 | 0.00 | 86 | 1010.5 |
| 20260505073412 | 12 | 270 | 0.0 | 3.2 | 0.00 | 0.00 | 0.00 | 86 | 1010.8 |
| 20260505072912 | 12 | 293 | 0.0 | 3.2 | 0.00 | 0.00 | 0.00 | 86 | 1010.5 |
| 20260505072411 | 12 | 293 | 0.0 | 0.0 | 0.00 | 0.00 | 0.00 | 85 | 1010.8 |
| 20260505071411 | 12 | 270 | 0.0 | 0.0 | 0.00 | 0.00 | 0.00 | 85 | 1010.5 |
| 20260505070854 | 12 | 270 | 0.0 | 0.0 | 0.00 | 0.00 | 0.00 | 85 | 1010.5 |
| 20260505070355 | 12 | 270 | 0.0 | 0.0 | 0.00 | 0.00 | 0.00 | 85 | 1010.1 |
| 20260505065343 | 12 | 270 | 0.0 | 1.6 | 0.00 | 0.00 | 0.00 | 85 | 1010.5 |
| 20260505064845 | 12 | 293 | 0.0 | 1.6 | 0.00 | 0.00 | 0.00 | 83 | 1010.5 |
| 20260505064343 | 12 | 293 | 0.0 | 1.6 | 0.00 | 0.00 | 0.00 | 83 | 1010.5 |
| 20260505063838 | 12 | 270 | 0.0 | 1.6 | 0.00 | 0.00 | 0.00 | 83 | 1010.5 |
| 20260505063336 | 12 | 293 | 0.0 | 1.6 | 0.00 | 0.00 | 0.00 | 83 | 1010.5 |
| 20260505062829 | 12 | 270 | 0.0 | 1.6 | 0.00 | 0.00 | 0.00 | 83 | 1010.5 |
| 20260505062329 | 12 | 270 | 0.0 | 0.0 | 0.00 | 0.00 | 0.00 | 81 | 1010.1 |
| 20260505061825 | 12 | 270 | 0.0 | 0.0 | 0.00 | 0.00 | 0.00 | 81 | 1010.1 |
| 20260505061324 | 12 | 225 | 0.0 | 3.2 | 0.00 | 0.00 | 0.00 | 81 | 1010.1 |
| 20260505060825 | 12 | 270 | 0.0 | 3.2 | 0.00 | 0.00 | 0.00 | 81 | 1010.1 |
| 20260505060325 | 13 | 225 | 0.0 | 6.4 | 0.00 | 0.00 | 0.00 | 80 | 1010.1 |
| 20260505055826 | 13 | 270 | 3.2 | 6.4 | 0.00 | 0.00 | 0.00 | 80 | 1010.1 |
| 20260505055326 | 13 | 180 | 1.6 | 6.4 | 0.00 | 0.00 | 0.00 | 80 | 1010.1 |
| 20260505054826 | 13 | 270 | 0.0 | 1.6 | 0.00 | 0.00 | 0.00 | 79 | 1010.5 |
| 20260505054325 | 13 | 270 | 0.0 | 1.6 | 0.00 | 0.00 | 0.00 | 79 | 1010.5 |
| 20260505053826 | 13 | 293 | 0.0 | 3.2 | 0.00 | 0.00 | 0.00 | 79 | 1010.5 |
| 20260505053325 | 13 | 203 | 1.6 | 3.2 | 0.00 | 0.00 | 0.00 | 79 | 1010.5 |
| 20260505052825 | 13 | 293 | 0.0 | 3.2 | 0.00 | 0.00 | 0.00 | 79 | 1010.5 |
| 20260505052326 | 13 | 293 | 0.0 | 3.2 | 0.00 | 0.00 | 0.00 | 79 | 1010.8 |
| 20260505051325 | 13 | 203 | 0.0 | 3.2 | 0.00 | 0.00 | 0.00 | 78 | 1010.8 |
| 20260505050824 | 13 | 293 | 0.0 | 4.8 | 0.00 | 0.00 | 0.00 | 78 | 1010.5 |
| 20260505050324 | 13 | 293 | 0.0 | 4.8 | 0.00 | 0.00 | 0.00 | 78 | 1010.5 |
| 20260505041319 | 14 | 293 | 0.0 | 1.6 | 0.00 | 0.00 | 0.00 | 73 | 1010.1 |
| 20260505040817 | 14 | 293 | 0.0 | 1.6 | 0.00 | 0.00 | 0.00 | 71 | 1010.1 |
| 20260505040317 | 14 | 270 | 0.0 | 1.6 | 0.00 | 0.00 | 0.00 | 70 | 1010.1 |
| 20260505035815 | 14 | 270 | 0.0 | 1.6 | 0.00 | 0.00 | 0.00 | 69 | 1010.1 |
| 20260505035314 | 14 | 293 | 0.0 | 1.6 | 0.00 | 0.00 | 0.00 | 69 | 1009.8 |
| 20260505034812 | 14 | 270 | 0.0 | 3.2 | 0.00 | 0.00 | 0.00 | 68 | 1009.8 |
| 20260505034315 | 14 | 293 | 0.0 | 3.2 | 0.00 | 0.00 | 0.00 | 68 | 1009.8 |
| 20260505033812 | 15 | 293 | 0.0 | 1.6 | 0.00 | 0.00 | 0.00 | 68 | 1009.8 |
| 20260505033308 | 15 | 315 | 0.0 | 1.6 | 0.00 | 0.00 | 0.00 | 68 | 1009.5 |
| 20260505032807 | 15 | 270 | 0.0 | 1.6 | 0.00 | 0.00 | 0.00 | 68 | 1009.5 |
| 20260505032308 | 15 | 270 | 0.0 | 1.6 | 0.00 | 0.00 | 0.00 | 68 | 1009.5 |
| 20260505031308 | 15 | 270 | 0.0 | 0.0 | 0.00 | 0.00 | 0.00 | 66 | 1009.5 |
| 20260505030802 | 15 | 293 | 0.0 | 6.4 | 0.00 | 0.00 | 0.00 | 66 | 1009.1 |
| 20260505030254 | 15 | 270 | 1.6 | 6.4 | 0.00 | 0.00 | 0.00 | 66 | 1009.5 |
| 20260505024749 | 15 | 270 | 0.0 | 3.2 | 0.00 | 0.00 | 0.00 | 66 | 1009.5 |
| 20260505024249 | 15 | 248 | 0.0 | 3.2 | 0.00 | 0.00 | 0.00 | 65 | 1009.5 |
| 20260505023744 | 15 | 270 | 1.6 | 3.2 | 0.00 | 0.00 | 0.00 | 65 | 1009.5 |
| 20260505023242 | 15 | 23 | 1.6 | 4.8 | 0.00 | 0.00 | 0.00 | 65 | 1009.5 |
| 20260505022741 | 16 | 293 | 1.6 | 4.8 | 0.00 | 0.00 | 0.00 | 65 | 1009.5 |
| 20260505022237 | 16 | 270 | 1.6 | 11.3 | 0.00 | 0.00 | 0.00 | 63 | 1009.5 |
| 20260505021738 | 16 | 270 | 3.2 | 11.3 | 0.00 | 0.00 | 0.00 | 63 | 1009.1 |
| 20260505021238 | 16 | 293 | 6.4 | 12.9 | 0.00 | 0.00 | 0.00 | 63 | 1009.5 |
| 20260505020737 | 16 | 270 | 6.4 | 12.9 | 0.00 | 0.00 | 0.00 | 63 | 1009.5 |
| 20260505020236 | 16 | 270 | 3.2 | 8.0 | 0.00 | 0.00 | 0.00 | 63 | 1009.1 |
| 20260505015736 | 16 | 270 | 3.2 | 11.3 | 0.00 | 0.00 | 0.00 | 63 | 1009.1 |
| 20260505014734 | 16 | 315 | 6.4 | 9.7 | 0.00 | 0.00 | 0.00 | 63 | 1009.1 |
| 20260505014235 | 17 | 315 | 1.6 | 9.7 | 0.00 | 0.00 | 0.00 | 63 | 1009.5 |
| 20260505013730 | 17 | 293 | 3.2 | 9.7 | 0.00 | 0.00 | 0.00 | 63 | 1009.1 |
| 20260505013228 | 17 | 293 | 3.2 | 4.8 | 0.00 | 0.00 | 0.00 | 61 | 1009.1 |
| 20260505012731 | 17 | 248 | 1.6 | 9.7 | 0.00 | 0.00 | 0.00 | 61 | 1009.5 |
| 20260505012229 | 17 | 270 | 4.8 | 9.7 | 0.00 | 0.00 | 0.00 | 60 | 1009.1 |
| 20260505011729 | 18 | 293 | 3.2 | 8.0 | 0.00 | 0.00 | 0.00 | 60 | 1009.5 |
| 20260505011229 | 18 | 270 | 3.2 | 8.0 | 0.00 | 0.00 | 0.00 | 60 | 1009.5 |
| 20260505010729 | 18 | 248 | 3.2 | 9.7 | 0.00 | 0.00 | 0.00 | 60 | 1009.5 |
| 20260505005722 | 18 | 248 | 4.8 | 9.7 | 0.00 | 0.00 | 0.00 | 59 | 1009.5 |
| 20260505005222 | 19 | 293 | 0.0 | 3.2 | 0.00 | 0.00 | 0.00 | 59 | 1009.5 |
| 20260505004716 | 18 | 270 | 0.0 | 4.8 | 0.00 | 0.00 | 0.00 | 59 | 1009.5 |
| 20260505003712 | 18 | 270 | 1.6 | 8.0 | 0.00 | 0.00 | 0.00 | 60 | 1009.8 |
| 20260505003209 | 19 | 293 | 3.2 | 8.0 | 0.00 | 0.00 | 0.00 | 58 | 1009.8 |
| 20260505002710 | 19 | 248 | 1.6 | 6.4 | 0.00 | 0.00 | 0.00 | 58 | 1009.8 |
| 20260505002211 | 20 | 293 | 3.2 | 6.4 | 0.00 | 0.00 | 0.00 | 56 | 1009.5 |
| 20260505001708 | 20 | 270 | 0.0 | 8.0 | 0.00 | 0.00 | 0.00 | 55 | 1009.5 |
| 20260505001206 | 20 | 270 | 3.2 | 8.0 | 0.00 | 0.00 | 0.00 | 55 | 1009.5 |
| 20260505000705 | 21 | 293 | 3.2 | 4.8 | 0.00 | 0.00 | 0.00 | 55 | 1009.5 |
| 20260505000200 | 21 | 203 | 1.6 | 4.8 | 0.00 | 0.00 | 0.00 | 55 | 1009.5 |
| 20260504235658 | 21 | 270 | 1.6 | 6.4 | 0.00 | 0.00 | 0.00 | 56 | 1009.8 |
| 20260504234652 | 19 | 315 | 1.6 | 4.8 | 0.00 | 0.00 | 0.00 | 61 | 1009.5 |